Location: Zapote
(9.9191°N, 84.0597°W)
Time: 15:47:44
(UTC-06:00)

Courier 1B Rocket - Pass Details

Date: 11 March 2021
Orbit: 920 x 1202 km, 28.2° (Epoch: 11 April)

Event Time Altitude Azimuth Distance (km) Brightness Sun altitude
Rises 18:54:53 0° 287° (WNW) 3,988 9.6 -17.5°
Reaches altitude 10° 18:57:46 10° 282° (WNW) 3,059 8.8 -18.2°
Maximum altitude 19:05:01 47° 211° (SSW) 1,536 6.2 -20.0°
Enters shadow 19:11:11 15° 143° (SE) 2,734 7.0 -21.5°
